Lid_Strength_Index
1 1 0 0 0 0 -0 -0 -1 -1 -1 -1 -1 -1 -1 -1 -0 1 5 3 1 -1 1 5 5 6 6 7 7 9 13 14 13 13 11 10 10 9 9 9 9 9 10 9 7
1 1 1 1 1 0 0 -0 -0 -1 -1 -1 -1 -1 -1 -1 2 4 1 -2 -2 -1 4 7 8 7 9 8 8 10 13 13 12 11 11 10 10 10 10 10 10 10 9 8 8
1 1 1 1 1 0 0 0 -0 -0 -1 -1 -1 -1 -1 0 5 6 -1 -2 -2 1 4 6 6 7 10 9 10 10 13 11 11 9 9 9 10 9 10 12 10 10 10 9 9
-0 0 1 1 1 0 0 0 -0 -0 -0 -1 -1 -1 -0 3 11 4 -1 -2 -1 3 5 6 7 9 10 10 8 12 10 10 8 9 9 10 9 10 10 10 9 9 9 9 10
0 0 0 0 0 0 0 0 -0 -0 -0 -1 -1 -1 3 7 6 2 -1 -0 2 5 6 7 9 9 10 10 10 11 10 9 9 9 10 9 10 10 11 10 9 9 9 10 10
0 0 0 1 0 0 0 0 0 -0 -0 -1 -1 -0 5 9 2 2 2 3 4 6 7 7 8 8 10 10 11 10 10 10 9 9 9 10 10 10 10 10 10 10 10 11 10
-0 0 0 0 0 0 0 0 0 -0 0 -0 -1 2 6 7 3 3 4 5 5 5 7 6 7 8 9 10 9 10 12 10 9 9 10 10 11 11 11 10 11 11 11 11 11
0 0 1 0 0 0 0 -0 0 0 -0 -0 -0 3 8 4 3 3 4 5 5 5 5 6 6 7 9 8 10 12 12 14 10 10 10 11 14 10 11 11 11 12 12 11 11
0 1 0 0 0 0 0 0 0 0 -1 -0 3 5 7 3 4 3 4 6 6 6 6 5 7 9 10 12 14 13 15 14 12 10 11 12 13 12 11 11 12 13 13 12 12
0 1 0 0 0 0 0 -0 0 1 0 1 2 8 6 7 5 4 5 5 7 7 8 8 10 12 12 14 16 15 15 14 13 11 12 13 13 12 11 12 12 13 13 13 13
1 1 1 0 0 -0 1 2 5 6 4 7 7 7 7 7 5 6 5 6 7 9 12 10 13 14 12 12 12 13 14 14 12 11 12 13 13 12 12 13 13 13 13 13 13
1 1 1 1 1 1 2 4 5 5 8 4 4 5 6 6 9 6 6 9 9 12 11 12 14 10 10 11 12 13 14 14 12 11 13 13 13 12 12 12 12 12 13 13 14
1 1 1 1 1 2 4 4 3 3 9 7 5 5 6 7 8 8 7 8 10 11 11 13 11 9 10 12 12 13 13 14 14 13 14 15 15 14 12 12 12 12 12 13 14
1 1 1 1 3 3 5 2 2 3 12 10 8 6 8 7 9 6 6 8 10 11 11 13 10 11 12 12 11 14 12 12 13 16 18 15 18 16 14 13 13 12 13 13 14
3 2 2 1 3 4 3 2 3 4 20 9 9 5 7 7 9 9 8 9 12 12 11 13 13 12 12 12 11 13 12 13 14 16 18 17 18 17 14 14 12 13 14 14 14
3 3 3 2 3 3 2 2 4 13 19 12 10 11 11 10 11 11 11 10 10 12 13 13 12 12 12 12 12 12 13 14 15 16 20 17 17 17 14 13 12 13 14 14 15
3 3 3 2 4 2 2 4 14 18 10 13 12 11 12 12 13 13 14 14 14 16 16 14 14 13 12 14 13 13 15 19 20 21 20 17 18 15 14 13 12 13 14 15 14
3 3 3 3 2 2 3 9 17 14 13 11 11 11 13 12 13 13 15 16 14 14 15 17 17 13 12 13 14 15 15 18 23 22 20 18 20 16 13 13 14 13 13 14 15
2 3 4 3 2 2 7 15 15 13 11 11 11 13 13 12 12 14 15 16 14 13 15 16 16 14 13 13 12 16 17 13 17 24 23 18 16 14 15 14 15 14 14 15 15
6 5 5 2 2 3 10 13 12 9 9 10 13 12 15 13 13 14 15 13 13 12 12 13 16 15 15 13 14 14 13 17 18 23 23 19 18 16 16 15 15 15 15 14 14
5 8 4 1 2 8 14 14 10 8 8 10 12 12 12 13 13 14 14 12 11 12 11 13 14 17 15 16 15 16 16 15 15 17 21 23 17 14 14 13 15 15 14 14 14
7 10 3 1 9 9 13 11 9 9 7 9 9 10 12 11 13 13 14 12 10 11 13 12 13 19 17 14 14 14 14 14 16 19 18 19 16 15 15 14 13 14 14 14 14
7 8 2 3 12 12 10 11 10 10 9 9 10 9 9 11 14 11 12 10 9 10 12 11 14 19 17 16 15 15 14 13 13 15 17 18 16 15 15 14 15 15 15 14 14
6 11 8 6 6 10 11 11 11 9 9 8 9 9 10 12 10 13 12 10 9 9 9 9 13 16 17 15 15 17 16 14 14 17 16 16 14 14 15 15 15 15 15 14 14
7 10 8 11 10 9 9 10 11 11 9 8 10 10 11 14 12 12 11 10 10 10 9 10 15 13 13 13 14 16 16 14 15 14 16 14 14 12 11 13 13 14 15 14 14
9 10 8 9 8 9 9 11 11 10 10 11 11 10 10 12 12 14 11 11 11 12 11 10 15 14 15 13 13 14 13 14 14 14 13 13 13 11 11 10 13 14 14 14 14
5 6 6 9 9 10 11 10 10 9 9 8 9 10 11 10 8 9 10 10 11 11 12 13 14 15 17 15 14 17 14 13 13 12 12 15 12 11 12 12 13 14 13 14 13